Погода в Котове

Россия / Курская область     51°15′58″N   36°25′41″E
темп.,
°C
ветер,
м/с
пор.,
м/с
влажн.,
%
обл.,
%
осадки,
мм/ч
давл.,
гПа
погр.,
м
18 августа, чт
чт1800:00+22всв715424 0.0 1011584
03:00+19св512500 0.0 1011355
06:00+19св613540 0.0 1010411
09:00+22всв61053100 0.6 1010615
12:00+28всв783398 0.6 10101334
15:00+29в683470 1.2 10091558
18:00+29св693992 0.2 10091306
21:00+18св4138575 2.8 1011304
19 августа, пт
пт1900:00+19всв614796 0.1 1012371
03:00+17всв613845 0.1 1012511
06:00+17всв713866 0.0 1013596
09:00+21всв810625 0.0 1013891
12:00+26в784631 0.0 10131575
15:00+24в8954100 0.0 10141220
18:00+22в8105424 0.0 10141105
21:00+17всв7148018 0.0 1016589
20 августа, сб
сб2000:00+17всв613780 0.0 1015478
03:00+16всв497112 0.0 1015192
06:00+18вюв5136496 0.0 1015423
09:00+21юв91359100 0.4 1017753
12:00+22вюв71246100 0.3 1017746
15:00+26вюв81034100 0.3 10171556
18:00+22в61341100 0.0 1017585
21:00+24в71329100 0.0 1017725
21 августа, вс
вс2100:00+23вюв81530100 0.1 1017521
03:00+23вюв81730100 0.3 1017821
06:00+22вюв71424100 0.1 1017520
09:00+21вюв51228100 0.1 1018587
12:00+26вюв81023100 0.0 1018980
15:00+28вюв81020100 0.0 10171547
18:00+27вюв71122100 0.0 10171131
21:00+22в51524100 0.0 1017370
22 августа, пн
пн2200:00+21в51521100 0.0 1017339
03:00+19в51322100 0.0 1017280
06:00+19в5122796 0.0 1018261
09:00+23вюв81434100 0.0 1018773
12:00+28вюв91227100 0.0 10171543
15:00+29юв91225100 0.0 10171962
18:00+28в6112795 0.0 10171019
21:00+24в5133281 0.0 1017257